Change the Weather History Date:

Wednesday, December 10, 2014

  Actual Average Record
Temperature  
Mean Temperature 38 °F -  
Max Temperature 41 °F 47 °F 77 °F (1918)
Min Temperature 35 °F 29 °F 6 °F (1919)
Degree Days  
Heating Degree Days 27    
Moisture  
Dew Point 29 °F    
Average Humidity 72    
Maximum Humidity 85    
Minimum Humidity 60    
Precipitation  
Precipitation 0.03 in - - ()
Sea Level Pressure  
Sea Level Pressure 30.32 in    
Wind  
Wind Speed 4 mph (NE)    
Max Wind Speed 6 mph    
Max Gust Speed -    
Visibility 10 miles    
Events Rain    
Averages and records for this station are not official NWS values.
T = Trace of Precipitation, MM = Missing Value Source: NWS Daily Summary

Daily Weather History Graph

Daily Weather History Graph

Search for Another Location

Airport or City:

Trip Planner

Search our weather history database for the weather conditions in past years. The results will help you decide how hot, cold, wet, or windy it might be!

Date:

Astronomy

Dec. 10, 2014 Rise Set
Actual Time 7:03 AM CST 4:45 PM CST
Civil Twilight 6:34 AM CST 5:13 PM CST
Nautical Twilight 6:01 AM CST 5:46 PM CST
Astronomical Twilight 5:30 AM CST 6:17 PM CST
Moon 8:55 PM CST (12/10) 9:57 AM CST (12/10)
Length of Visible Light 10h 39m
Length of Day
9h 42m
Waning Gibbous, 83% of the Moon is Illuminated
Dec 10
Waning Gibbous
Dec 14
Last Quarter
Dec 21
New
Dec 28
First Quarter
Jan 4
Full

Hourly Weather History & Observations

Time (CST) Temp. Windchill Dew Point Humidity Pressure Visibility Wind Dir Wind Speed Gust Speed Precip Events Conditions
12:53 AM 37.9 °F 34.4 °F 28.9 °F 70% 30.37 in 10.0 mi NNE 4.6 mph - N/A   Overcast
1:53 AM 37.9 °F 35.5 °F 30.0 °F 73% 30.36 in 10.0 mi North 3.5 mph - N/A   Overcast
2:53 AM 37.0 °F 33.3 °F 30.0 °F 76% 30.36 in 10.0 mi North 4.6 mph - N/A   Overcast
3:53 AM 37.9 °F 34.4 °F 30.0 °F 73% 30.36 in 10.0 mi North 4.6 mph - N/A   Overcast
4:53 AM 37.0 °F 33.3 °F 30.0 °F 76% 30.37 in 10.0 mi NNW 4.6 mph - N/A   Overcast
5:53 AM 37.0 °F 33.3 °F 28.9 °F 73% 30.38 in 10.0 mi North 4.6 mph - N/A   Overcast
6:53 AM 37.0 °F 33.3 °F 30.0 °F 76% 30.38 in 10.0 mi NE 4.6 mph - N/A   Overcast
7:53 AM 37.9 °F 34.4 °F 28.9 °F 70% 30.39 in 10.0 mi North 4.6 mph - N/A   Overcast
8:53 AM 39.0 °F 35.7 °F 28.0 °F 65% 30.39 in 10.0 mi NNW 4.6 mph - N/A   Overcast
9:53 AM 39.0 °F 35.7 °F 28.0 °F 65% 30.40 in 10.0 mi NE 4.6 mph - N/A   Overcast
10:53 AM 39.0 °F 36.8 °F 28.0 °F 65% 30.39 in 10.0 mi ENE 3.5 mph - N/A   Overcast
11:53 AM 39.9 °F 36.7 °F 28.0 °F 63% 30.36 in 10.0 mi North 4.6 mph - N/A   Overcast
12:53 PM 41.0 °F - 28.0 °F 60% 30.33 in 10.0 mi Calm Calm - N/A   Overcast
1:53 PM 39.9 °F - 28.0 °F 63% 30.30 in 10.0 mi Calm Calm - N/A   Overcast
2:53 PM 39.9 °F 36.7 °F 28.9 °F 65% 30.29 in 10.0 mi ENE 4.6 mph - N/A   Overcast
3:53 PM 39.0 °F - 28.0 °F 65% 30.30 in 10.0 mi Calm Calm - N/A   Overcast
4:53 PM 39.0 °F 36.8 °F 28.9 °F 67% 30.30 in 10.0 mi NE 3.5 mph - N/A   Overcast
5:53 PM 39.0 °F 34.8 °F 28.9 °F 67% 30.29 in 10.0 mi NE 5.8 mph - N/A   Overcast
6:53 PM 37.9 °F 35.5 °F 28.9 °F 70% 30.28 in 10.0 mi NNE 3.5 mph - N/A   Overcast
7:53 PM 37.0 °F 32.4 °F 30.0 °F 76% 30.28 in 10.0 mi East 5.8 mph - 0.00 in Rain Light Rain
8:00 PM 37.0 °F 33.3 °F 30.0 °F 76% 30.26 in 9.0 mi ESE 4.6 mph - 0.00 in Rain Light Rain
8:51 PM 35.6 °F 31.7 °F 30.2 °F 81% 30.25 in 8.0 mi ENE 4.6 mph - 0.03 in Rain Light Rain
8:53 PM 36.0 °F 33.3 °F 30.9 °F 82% 30.27 in 8.0 mi East 3.5 mph - 0.03 in Rain Light Rain
9:25 PM 35.1 °F 32.2 °F 30.9 °F 85% 30.27 in 7.0 mi NE 3.5 mph - 0.00 in   Mostly Cloudy
9:53 PM 35.1 °F 31.0 °F 30.0 °F 82% 30.29 in 9.0 mi ENE 4.6 mph - 0.00 in   Partly Cloudy
10:38 PM 35.1 °F 31.0 °F 28.9 °F 78% 30.27 in 10.0 mi ENE 4.6 mph - N/A   Mostly Cloudy
10:53 PM 35.1 °F 31.0 °F 28.9 °F 78% 30.30 in 10.0 mi NE 4.6 mph - N/A   Mostly Cloudy
11:53 PM 35.1 °F 32.2 °F 28.0 °F 76% 30.30 in 10.0 mi NNE 3.5 mph - N/A   Overcast